This is the latest recevied weather packets stored in our database for station/object W4SKW. If no packets are shown the sender has not sent any weather packets the latest 10 day(s).
| Time | Temp. | Humidity | Pressure | Rain* | Wind** | Luminosity | Snow |
|---|---|---|---|---|---|---|---|
| 1777510232 | 20.56° C | 91% | 1012 hPa | 0 mm | - | 0 W/m² | - |
| 1777509928 | 20.56° C | 91% | 1011.8 hPa | 0 mm | - | 0 W/m² | - |
| 1777509624 | 20.56° C | 91% | 1011.7 hPa | 0 mm | - | 0 W/m² | - |
| 1777509321 | 20.56° C | 91% | 1011.9 hPa | 0 mm | - | 0 W/m² | - |
| 1777509018 | 21.11° C | 90% | 1011.7 hPa | 0 mm | - | 1 W/m² | - |
| 1777508715 | 21.11° C | 90% | 1011.7 hPa | 0 mm | - | 1 W/m² | - |
| 1777508406 | 21.11° C | 89% | 1011.6 hPa | 0 mm | - | 1 W/m² | - |
| 1777508103 | 21.67° C | 89% | 1011.6 hPa | 0 mm | - | 2 W/m² | - |
| 1777507800 | 21.67° C | 89% | 1011.7 hPa | 0 mm | - | 4 W/m² | - |
| 1777507496 | 21.67° C | 89% | 1011.8 hPa | 0 mm | - | 4 W/m² | - |
| 1777507072 | 22.22° C | 89% | 1011.7 hPa | 0 mm | - | 10 W/m² | - |
| 1777506769 | 22.22° C | 89% | 1011.7 hPa | 0 mm | - | 10 W/m² | - |
| 1777506465 | 22.22° C | 88% | 1011.6 hPa | 0 mm | - | 13 W/m² | - |
| 1777506161 | 22.22° C | 87% | 1011.4 hPa | 0 mm | - | 13 W/m² | - |
| 1777505857 | 22.78° C | 86% | 1011.4 hPa | 0 mm | - | 17 W/m² | - |
| 1777505554 | 22.78° C | 86% | 1011.4 hPa | 0 mm | - | 17 W/m² | - |
| 1777505250 | 22.78° C | 84% | 1011.2 hPa | 0 mm | - | 23 W/m² | - |
| 1777504947 | 22.78° C | 84% | 1011 hPa | 0 mm | - | 30 W/m² | - |
| 1777504644 | 22.78° C | 83% | 1011 hPa | 0 mm | - | 32 W/m² | - |
| 1777504341 | 22.78° C | 84% | 1011.4 hPa | 0 mm | - | 39 W/m² | - |
| 1777504035 | 22.78° C | 83% | 1011.1 hPa | 0 mm | - | 42 W/m² | - |
| 1777503733 | 22.78° C | 84% | 1011.3 hPa | 0 mm | - | 47 W/m² | - |
| 1777503429 | 23.33° C | 83% | 1011.5 hPa | 0 mm | - | 64 W/m² | - |
| 1777503125 | 22.78° C | 82% | 1011.3 hPa | 0 mm | - | 66 W/m² | - |
| 1777502823 | 22.78° C | 82% | 1011.3 hPa | 0 mm | - | 60 W/m² | - |
* Rain latest hour (hover to see other rain measurements)
** Current wind speed in m/s (hover to see current wind gust speed)